TimeEST,TemperatureF,Dew PointF,Humidity,Sea Level PressureIn,VisibilityMPH,Wind Direction,Wind SpeedMPH,Gust SpeedMPH,PrecipitationIn,Events,Conditions,WindDirDegrees,DateUTC
12:55 AM,55.4,53.6,94,30.10,3.0,Calm,Calm,-,N/A,,Mist,0,2012-12-16 05:55:00
1:15 AM,55.4,53.6,94,30.10,4.0,Calm,Calm,-,N/A,,Mist,0,2012-12-16 06:15:00
1:35 AM,55.4,53.6,94,30.09,4.0,Calm,Calm,-,N/A,,Mist,0,2012-12-16 06:35:00
1:55 AM,55.4,53.6,94,30.08,4.0,Calm,Calm,-,N/A,,Mist,0,2012-12-16 06:55:00
2:15 AM,55.4,53.6,94,30.08,3.0,Calm,Calm,-,N/A,,Mist,0,2012-12-16 07:15:00
2:35 AM,55.4,53.6,94,30.07,3.0,Calm,Calm,-,N/A,,Mist,0,2012-12-16 07:35:00
2:55 AM,55.4,53.6,94,30.07,3.0,SSW,3.5,-,N/A,,Mist,200,2012-12-16 07:55:00
3:15 AM,55.4,53.6,94,30.07,3.0,Calm,Calm,-,N/A,,Mist,0,2012-12-16 08:15:00
3:35 AM,55.4,53.6,94,30.06,3.0,Calm,Calm,-,N/A,,Mist,0,2012-12-16 08:35:00
3:55 AM,53.6,51.8,94,30.06,1.5,Calm,Calm,-,N/A,,Mist,0,2012-12-16 08:55:00
4:15 AM,53.6,51.8,94,30.07,1.2,Calm,Calm,-,N/A,,Mist,0,2012-12-16 09:15:00
4:55 AM,53.6,51.8,94,30.05,0.2,Calm,Calm,-,N/A,Fog,Fog,0,2012-12-16 09:55:00
5:15 AM,53.6,51.8,94,30.05,0.2,Calm,Calm,-,N/A,Fog,Fog,0,2012-12-16 10:15:00
5:35 AM,53.6,51.8,94,30.06,2.0,Calm,Calm,-,N/A,,Mist,0,2012-12-16 10:35:00
6:15 AM,53.6,51.8,94,30.06,3.0,Calm,Calm,-,N/A,,Mist,0,2012-12-16 11:15:00
6:35 AM,53.6,51.8,94,30.07,3.0,Calm,Calm,-,N/A,,Mist,0,2012-12-16 11:35:00
7:15 AM,53.6,51.8,94,30.08,3.0,Calm,Calm,-,N/A,,Mist,0,2012-12-16 12:15:00
7:35 AM,53.6,51.8,94,30.08,1.5,Calm,Calm,-,N/A,,Mist,0,2012-12-16 12:35:00
7:55 AM,53.6,51.8,94,30.08,0.2,Calm,Calm,-,N/A,Fog,Fog,0,2012-12-16 12:55:00
8:35 AM,55.4,53.6,94,30.09,0.2,Calm,Calm,-,N/A,Rain,Rain,0,2012-12-16 13:35:00
8:55 AM,55.4,53.6,94,30.09,2.0,Calm,Calm,-,N/A,,Mist,0,2012-12-16 13:55:00
9:15 AM,55.4,53.6,94,30.09,4.0,Calm,Calm,-,N/A,,Mist,0,2012-12-16 14:15:00
9:35 AM,57.2,55.4,94,30.09,4.0,Calm,Calm,-,N/A,,Mist,0,2012-12-16 14:35:00
9:55 AM,59.0,57.2,94,30.08,7.0,Calm,Calm,-,N/A,,Unknown,0,2012-12-16 14:55:00
10:15 AM,60.8,57.2,88,30.08,7.0,Calm,Calm,-,N/A,,Unknown,0,2012-12-16 15:15:00
10:35 AM,62.6,57.2,82,30.07,7.0,Calm,Calm,-,N/A,,Unknown,0,2012-12-16 15:35:00
10:55 AM,62.6,57.2,82,30.07,10.0,Calm,Calm,-,N/A,,Unknown,0,2012-12-16 15:55:00
11:15 AM,64.4,59.0,83,30.07,7.0,South,3.5,-,N/A,,Unknown,180,2012-12-16 16:15:00
11:35 AM,66.2,59.0,78,30.06,7.0,Calm,Calm,-,N/A,,Unknown,0,2012-12-16 16:35:00
11:55 AM,66.2,59.0,78,30.05,10.0,Calm,Calm,-,N/A,,Unknown,0,2012-12-16 16:55:00
12:15 PM,68.0,60.8,78,30.03,10.0,Calm,Calm,-,N/A,,Unknown,0,2012-12-16 17:15:00
12:35 PM,69.8,60.8,73,30.03,7.0,South,6.9,-,N/A,,Unknown,190,2012-12-16 17:35:00
1:15 PM,71.6,60.8,69,30.01,7.0,SW,11.5,-,N/A,,Unknown,220,2012-12-16 18:15:00
1:35 PM,73.4,60.8,65,29.99,10.0,SSW,8.1,-,N/A,,Unknown,200,2012-12-16 18:35:00
1:55 PM,73.4,60.8,65,29.98,10.0,SSW,9.2,-,N/A,,Unknown,210,2012-12-16 18:55:00
2:15 PM,73.4,60.8,65,29.97,10.0,SSW,9.2,-,N/A,,Unknown,200,2012-12-16 19:15:00
2:35 PM,73.4,60.8,65,29.97,10.0,WSW,8.1,-,N/A,,Unknown,240,2012-12-16 19:35:00
2:55 PM,73.4,59.0,61,29.97,10.0,SW,8.1,-,N/A,,Unknown,230,2012-12-16 19:55:00
3:15 PM,71.6,60.8,69,29.97,10.0,WSW,8.1,-,N/A,,Unknown,240,2012-12-16 20:15:00
3:35 PM,71.6,59.0,64,29.97,7.0,SW,9.2,-,N/A,,Unknown,220,2012-12-16 20:35:00
3:55 PM,71.6,59.0,64,29.97,10.0,SW,5.8,-,N/A,,Unknown,230,2012-12-16 20:55:00
4:15 PM,71.6,59.0,64,29.97,10.0,SSW,6.9,-,N/A,,Unknown,200,2012-12-16 21:15:00
4:35 PM,71.6,60.8,69,29.96,10.0,SSW,5.8,-,N/A,,Unknown,210,2012-12-16 21:35:00
4:55 PM,69.8,60.8,73,29.97,10.0,South,3.5,-,N/A,,Unknown,180,2012-12-16 21:55:00
5:15 PM,69.8,60.8,73,29.97,10.0,SSW,4.6,-,N/A,,Unknown,210,2012-12-16 22:15:00
5:35 PM,68.0,60.8,78,29.97,7.0,SSW,3.5,-,N/A,,Unknown,210,2012-12-16 22:35:00
5:55 PM,66.2,60.8,83,29.95,10.0,South,3.5,-,N/A,,Unknown,190,2012-12-16 22:55:00
6:15 PM,68.0,60.8,78,29.95,10.0,South,3.5,-,N/A,,Unknown,180,2012-12-16 23:15:00
6:35 PM,66.2,60.8,83,29.95,7.0,Calm,Calm,-,N/A,,Unknown,0,2012-12-16 23:35:00
6:55 PM,66.2,60.8,83,29.95,10.0,Calm,Calm,-,N/A,,Unknown,0,2012-12-16 23:55:00
7:15 PM,66.2,60.8,83,29.96,10.0,Calm,Calm,-,N/A,,Unknown,0,2012-12-17 00:15:00
7:35 PM,64.4,59.0,83,29.95,10.0,Calm,Calm,-,N/A,,Unknown,0,2012-12-17 00:35:00
7:55 PM,64.4,60.8,88,29.94,10.0,Calm,Calm,-,N/A,,Unknown,0,2012-12-17 00:55:00
8:15 PM,64.4,60.8,88,29.95,10.0,Calm,Calm,-,N/A,,Unknown,0,2012-12-17 01:15:00
8:35 PM,64.4,59.0,83,29.94,10.0,Calm,Calm,-,N/A,,Unknown,0,2012-12-17 01:35:00
8:55 PM,62.6,60.8,94,29.94,10.0,Calm,Calm,-,N/A,,Unknown,0,2012-12-17 01:55:00
9:15 PM,62.6,60.8,94,29.93,7.0,Calm,Calm,-,N/A,,Unknown,0,2012-12-17 02:15:00
9:35 PM,62.6,60.8,94,29.93,7.0,Calm,Calm,-,N/A,,Unknown,0,2012-12-17 02:35:00
9:55 PM,62.6,59.0,88,29.93,7.0,South,3.5,-,N/A,,Unknown,170,2012-12-17 02:55:00
10:15 PM,64.4,60.8,88,29.93,10.0,South,3.5,-,N/A,,Unknown,170,2012-12-17 03:15:00
10:35 PM,64.4,60.8,88,29.93,7.0,South,3.5,-,N/A,,Unknown,170,2012-12-17 03:35:00
10:55 PM,64.4,60.8,88,29.92,7.0,SSE,5.8,-,N/A,,Unknown,160,2012-12-17 03:55:00
11:15 PM,64.4,60.8,88,29.90,7.0,South,4.6,-,N/A,,Unknown,170,2012-12-17 04:15:00
11:35 PM,62.6,60.8,94,29.91,7.0,South,4.6,-,N/A,,Unknown,190,2012-12-17 04:35:00
11:55 PM,62.6,60.8,94,29.90,7.0,SSW,4.6,-,N/A,,Unknown,200,2012-12-17 04:55:00